Regional Weather Roundup
Issued by NWS Sterling, VA

Home | Current Version | Previous Version | Graphics & Text | Print | Product List | Glossary On
Versions: 1 2 3 4 5 6 7 8 9 10 11 12 13 14 15 16 17 18 19 20 21 22 23 24 25 26 27 28 29 30 31 32 33 34 35 36 37 38 39 40 41 42 43 44 45 46 47 48 49 50
134
ASUS41 KLWX 221611
RWRLWX

REGIONAL WEATHER ROUNDUP
NATIONAL WEATHER SERVICE BALTIMORE MD/WASHINGTON DC
1100 AM EST SUN JAN 22 2017

Note: "FAIR" indicates few or no clouds below 12,000 feet
with no significant weather and/or obstructions to visibility.
 TC=TEMPERATURE CELSIUS

 * =Non NWS site. Station does not report precipitation (e.g. rain,
    snow, etc.), thunder, or fog.

DCZ001-MDZ009-015-VAZ040>042-051-053>054-221700-
WASHINGTON METRO

CITY           SKY/WX    TMP DP  RH WIND       PRES   REMARKS
WASHINGTON NAT CLOUDY    50  48  93 N8        29.72F
DULLES         CLOUDY    47  45  93 N7        29.72F FOG
ANDREWS AFB    CLOUDY    47  47  99 N6        29.70F FOG
FT BELVOIR     CLOUDY    49  47  93 CALM      29.71F
QUANTICO       FOG       46  46 100 E8        29.72F VSB 1/4
COLLEGE PARK*  CLOUDY    46  45  93 N3        29.71F
LEESBURG*      CLOUDY    48  48 100 N5        29.73F FOG
MANASSAS*      CLOUDY   N/A N/A N/A CALM      29.72F FOG
GAITHERSBURG*  CLOUDY    46  43  87 NW5       29.76F

$$

MDZ006>007-011-014-221700-
BALTIMORE METRO

CITY           SKY/WX    TMP DP  RH WIND       PRES   REMARKS
BWI AIRPORT    CLOUDY    48  47  96 CALM      29.72F
MD SCIENCE CTR   N/A     50  44  80 MISG      29.75R
MARTIN STATE   CLOUDY    48  48 100 CALM      29.73F
ANNAPOLIS      CLOUDY    47  44  90 NW9       29.71F FOG
FORT MEADE*    CLOUDY    46  45  93 N5        29.74F

$$

MDZ012-015-019>023-221700-
MARYLAND EASTERN SHORE

CITY           SKY/WX    TMP DP  RH WIND       PRES   REMARKS
OCEAN CITY     CLOUDY    52  52 100 N8        29.66R FOG
SALISBURY      CLOUDY    49  49 100 N7        29.68R FOG
BAY BRIDGE AP* FOG       43  43 100 N7        29.71F VSB 1/4
CAMBRIDGE*     CLOUDY    46  46 100 N6        29.68F
EASTON*        FOG       48  46  93 N7        29.73F VSB 3/4

$$

MDZ017>025-221700-
SOUTHERN MARYLAND

CITY           SKY/WX    TMP DP  RH WIND       PRES   REMARKS
PATUXENT RIVER FOG       47  47 100 N8        29.69F VSB 1/2
ST INIGOES     CLOUDY    48  47  96 VRB3      29.68F FOG
LEONARDTOWN*   CLOUDY    46  45  93 N3        29.70F VSB 1/4

$$

MDZ003>005-221700-
NORTH CENTRAL MARYLAND

CITY           SKY/WX    TMP DP  RH WIND       PRES   REMARKS
FREDERICK*     CLOUDY    46  46 100 VRB3      29.76S FOG
HAGERSTOWN APT CLOUDY    45  42  89 W5        29.74R FOG
WESTMINSTER*     N/A     45  45 100 CALM      29.72S FOG

$$

MDZ501>502-221700-
WESTERN MARYLAND

CITY           SKY/WX    TMP DP  RH WIND       PRES   REMARKS
OAKLAND*         N/A     46  45  93 E12       29.66F
CUMBERLAND*    CLOUDY    45  45 100 CALM      29.75F

$$

VAZ025>031-221700-
SHENANDOAH VALLEY

CITY           SKY/WX    TMP DP  RH WIND       PRES   REMARKS
WINCHESTER*    CLOUDY    45  43  93 CALM      29.71F
FRONT ROYAL*   CLOUDY    45  45 100 N3        29.68F
LURAY*         CLOUDY    46  46 100 N6        29.66F
NEW MARKET*    CLOUDY    46  44  94 NE6       29.67F
STAUNTON*      CLOUDY    46  46 100 CALM      29.71S FOG
WAYNESBORO*    CLOUDY    46  45  95 NW3       29.69F

$$

WVZ021-048>050-054>055-221700-
EASTERN WEST VIRGINIA PANHANDLE

CITY           SKY/WX    TMP DP  RH WIND       PRES   REMARKS
MARTINSBURG    CLOUDY    46  43  89 NW6       29.72F
PETERSBURG*    CLOUDY    47  46  93 CALM      29.69F FOG

$$

VAZ036>039-050-221700-
CENTRAL FOOTHILLS

CITY           SKY/WX    TMP DP  RH WIND       PRES   REMARKS
CHARLOTTESVILL CLOUDY    51  49  92 CALM      29.68F FOG
CULPEPER*      CLOUDY    50  50 100 N6        29.69F
ORANGE*          N/A     50  50 100 N3        29.66F
GORDONSVILLE*  CLOUDY    49  49  98 CALM      29.66F
WARRENTON*     CLOUDY    50  47  88 N7        29.69F

$$

VAZ055>057-221700-
NORTH AND CENTRAL PIEDMONT

CITY           SKY/WX    TMP DP  RH WIND       PRES   REMARKS
FREDERICKSBRG* CLOUDY    49  49 100 N8        29.67F
STAFFORD*      CLOUDY    48  48 100 N7        29.72F FOG

$$

NCZ024-NYZ072-PAZ021-071-VAZ022-071-221700-
OTHER REGIONAL OBSERVATIONS

CITY           SKY/WX    TMP DP  RH WIND       PRES   REMARKS
NEW YORK CITY  CLOUDY    46  45  96 E6        29.77S FOG
PHILADELPHIA   CLOUDY    48  46  93 N6        29.74S FOG
PITTSBURGH     CLOUDY    54  50  86 E3        29.63F
ROANOKE        FOG       52  51  97 CALM      29.63F VSB 3/4
RICHMOND       CLOUDY    49  49 100 N7        29.65F FOG
RALEIGH        CLOUDY    54  53  97 NE10      29.57F VSB 1/2

$$

ANZ530>537-221700-
MARINE OBSERVATIONS

STATION/POSITION TIME  TEMP    WIND        PRES
                       AIR SEA DIR/SP/G
                 (UTC) (F)     (DEG/KT/KT) (MB)
THOMAS PT LIGHT  1600   45 40  360/ 10/ 11   N/A
BALT KEY BRIDGE  1548   45      CALM  /  2 1006.6F
COVE POINT       1548   43     360/ 12/ 15 1006.3F
LEWISETTA        1542   47 44  330/  7/  9 1005.2S
SOLOMONS ISLAND  1548   46 42  340/ 10/ 12   N/A
PINEY POINT      1548          340/  7/  7   N/A

$$





USA.gov is the U.S. government's official web portal to all federal, state and local government web resources and services.